Retour au catalogue

COSMOS 2100

ActifMilitairePO
NORAD 20804·PAYLOAD·🇷🇺 Russia

Lancé Sep 14, 1990 depuis Plesetsk Cosmodrome

Loading…

Prochains Passages (prochaines 24 heures)

TLE

FraisSource: Space-Track

Époque: Sep 14, 2026, 01:41 UTC

1 20804U 90083A   26257.07053057  .00000027  00000-0  11794-4 0  9998
2 20804  82.9358 102.0118 0037582  32.3503 132.9808 13.74571746805442

Suivez COSMOS 2100 en temps réel avec AllMySat

Download on the App Store